Погода Туапсе

Погода Туапсе : погода сейчас, прогноз погоды и архив. Всё, что Вы хотите узнать о погоде Туапсе!

Хотите узнать прогноз погоды Туапсе? Тогда Вам сюда: Погода Туапсе

Поиск расширенной информации на нашем сайте:

Другие новости

Новости СМИ2

Главная страница сайта

Новости сайта

03.07.2017

Напоминаем, что на нашем специализированном сайте Метеоцентр.Азия вы можете получить высокодетализированные автоматические прогнозы погоды по пунктам России, СНГ и мира в авиационном формате (включающие направление и скорость ветра, видимость, явления погоды, количество и форму облачности, нижнюю и верхнюю границу облачности).


Погода Туапсе - сегодня

Время (UTC), дата Ветер
(°,м/с) 
Видим.   Явления Облачность Т
(°С)
Тd
(°С)
f(%) Тe
(°С)
Pmin
(гПа)
dP
(гПа)
Po
(мм)
O2
(г/м3)
Тmin Tmax R s Состояние
почвы
09 18.06.18 230 (ЮЗ) 20000 м    10/4 1000 м средняя, верхняя 
[Cu med, cong|Ac trans|Ci sp]
+27.2 +17.9 57 +41  1005.8  0.9  749  271           
12 18.06.18 070 (В) 20000 м  в посл. час гроза  10/8 1000 м кучево-дожд., средняя, верхняя 
[Cb cap|Ac trans|Ci sp]
+24.3 +14.2 53 +32  1007.2  1.3  750  275           
15 18.06.18 050 (СВ) 20000 м  {ливн. осадки}  10/5 1000 м кучево-дожд., средняя, верхняя 
[Cb cap|Ac trans|Ci sp]
+23 +14.2 58 +30  1006.9  -0.4  750  276    +29.4  0.0     
18 18.06.18 080 (В) 10 км  {ливн. осадки}  4/3 1000 м верхняя 
[Cu med, cong|Ci sp]
+22.2 +14.3 61 +30  1006.6  -0.3  750  276           
21 18.06.18 050 (СВ) 10 км    8/3 1000 м средняя, верхняя 
[Cu med, cong|Ac cast|Ci sp]
+20.7 +14.4 67 +28  1007.9  1.3  751  278           
00 19.06.18 060 (СВ) 10 км    6/3 1000 м верхняя 
[Cu med, cong|Ci sp]
+19.2 +14.8 76 +28  1008.6  0.6  751  280           
03 19.06.18 050 (СВ) 20000 м    8/4 1000 м верхняя 
[Cu Sc|Ci sp]
+19.9 +14.9 73 +29  1009.4  0.8  752  279  +18.6        влажная 
06 19.06.18 170 (Ю) 20000 м    8/3 1000 м верхняя 
[Cu med, cong|Ci]
+26 +15 51 +35  1010.3  1.1  752  274           
09 19.06.18 220 (ЮЗ) 20000 м    6/4 1000 м верхняя 
[Cu med, cong|Ci fib]
+28.9 +18.7 54 +45  1010.8  0.6  753  270           
12 19.06.18 060 (СВ) 10 км  гроза без осадков  10/6 600 м верхняя 
[Cu med, cong|Ci sp]
+24.2 +17.1 65 +37  1012.1  1.1  754  275           
15 19.06.18 250 (З) 20000 м  {гроза, ливн. осадки}  10/0 верхняя 
[Ci]
+26.8 +16.8 54 +39  1010.7  -1.3  753  273    +29.6  0.0     
18 19.06.18 030 (СВ) 10 км  {гроза, ливн. осадки}  ясно 
+22.6 +18.4 77 +38  1011  0.2  753  276           
21 19.06.18 050 (СВ) 10 км    ясно 
+20 +16.1 78 +31  1011.2  0.1  753  279           
00 20.06.18 060 (СВ) 10 км    ясно 
+19.2 +15.4 79 +29  1012.5  1.3  754  281           
03 20.06.18 050 (СВ) 20000 м    1/1 1000 м 
[Cu med, cong]
+19.9 +14.4 71 +29  1012.9  0.4  754  280  +18.4        влажная 
06 20.06.18 190 (Ю) 20000 м    1/1 1000 м 
[Cu hum]
+27.5 +14.7 46 +35  1013.3  0.6  755  273           
09 20.06.18 230 (ЮЗ) 20000 м    1/1 1000 м 
[Cu hum]
+28.3 +19.1 57 +45  1013.8  0.5  755  271           
12 20.06.18 240 (ЮЗ) 20000 м    3/3 1000 м 
[Cu hum]
+30.1 +19.1 52 +47  1013.2  -0.5  755  270           
15 20.06.18 260 (З) 20000 м    ясно 
+27 +19.8 65 +45  1012.7  -0.6  754  272    +30.6       
18 20.06.18 040 (СВ) 10 км    ясно 
+23.6 +18.9 75 +40  1013  0.2  754  275           
21 20.06.18 080 (В) 10 км    4/1 1000 м верхняя 
[Sc|Ci fib]
+22.9 +18.7 77 +38  1014.5  1.5  756  277           
00 21.06.18 040 (СВ) 10 км    3/1 1000 м верхняя 
[Sc|Ci fib]
+20.2 +16.6 80 +32  1014.3  -0.3  755  280           
03 21.06.18 050 (СВ) 20000 м    4/3 1000 м верхняя 
[Cu hum|Ci fib]
+19.8 +15 74 +29  1014.9  0.6  756  281  +18.7        влажная 
06 21.06.18 070 (В) 20000 м    3/3 1000 м 
[Cu med, cong]
+24.4 +15.6 58 +34  1015  0.2  756  276           
09 21.06.18 230 (ЮЗ) 20000 м    3/3 1000 м 
[Cu med, cong]
+28.8 +19.1 56 +45  1014.2  -0.6  755  271           
Время (UTC), дата Ветер
(°,м/с) 
Видим.   Явления Облачность Т
(°С)
Тd
(°С)
f(%) Тe
(°С)
Pmin
(гПа)
dP
(гПа)
Po
(мм)
O2
(г/м3)
Тmin Tmax R s Состояние
почвы

Для получения пояснительной информации подведите курсор к названию столбца.

ПОГОДА Туапсе - архив

Всё, что Вы хотите узнать о погоде Туапсе - удобно и подробно!

Выберите нужную дату (начиная с 1 января 2015* года) и нажмите кнопку "Найти".
Будут отображены архивные сводки погоды по пункту Туапсе, начиная с указанной даты.


Отображать данные в формате CSV (для использования в таблицах Excel)


Внимание! Наш архив погоды предназначен исключительно для личного некоммерческого использования в познавательных целях. Если Вам необходимы официальные справки о состоянии погоды (для производственных, юридических, коммерческих и т.п. целей), обращайтесь в органы Росгидромета.

*Примечание: данная дата относится к архиву по метеостанциям СССР (Россия, СНГ, Балтия).
Архив по метеостанциям Зарубежной Европы и Азии (кроме Китая) хранится 10 дней, по другим регионам земного шара (Китай, Африка, Америка, Австралия, Океания) - 1 день.

Туапсе - район местоположения метеостанции


Название, широта, долгота, высота метеостанции:
Туапсе 44.1°ш. 39.1°д. 61 м над ур. моря [Российская Федерация]

Дополнительная информация

В oтличие oт бoльшинства пoгoдных сайтoв мы публикуем пoдрoбную метеoинфoрмацию в детальнoм прoфессиoнальнoм фoрмате.

Характеристики температуры и влажнoсти вoздуха измеряются на высoте 2 м в тени вдали oт зданий и деревьев.
Скoрoсть ветра измеряется на высoте 10 м (на урoвне рoста челoвека скoрoсть ветра ниже в 1.5-2 раза). Если метеoстанция нахoдится в гoрoде или в лесу, тo скoрoсть ветра занижена на 2-4 м/с пo сравнению с oткрытым местoм. Скoрoсть ветра над акватoриями крупных рек и oзёр, а также на вершинах хoлмoв на 2-5 м/с выше, чем в oбычных услoвиях.
Атмoсфернoе давление в разных тoчках местнoсти мoжет значительнo oтличаться oт давления на метеoстанции, в зависимoсти oт услoвий рельефа (при пoдъёме на 10 м давление пoнижается примернo на 1 мм рт.ст.).